Location: Archemont
(49.1579°N, 1.7598°E)
Time: 18:19:46
(UTC+00:00)

Courier 1B - Visible Passes

Search period start: 19 April 2024 00:00
Search period end: 29 April 2024 00:00
Orbit: 962 x 1208 km, 28.3° (Epoch: 18 April)

Date Brightness Start Highest point End Pass type
(mag) Time Alt. Az. Time Alt. Az. Time Alt. Az.
19 Apr 9.5 03:36:33 10° SSW 03:38:54 12° S 03:41:14 10° SSE visible
20 Apr 9.5 02:45:10 11° S 02:45:25 11° S 02:47:34 10° SSE visible
21 Apr 9.5 03:41:51 10° SSW 03:44:32 12° S 03:47:09 10° SSE visible
22 Apr 9.4 02:50:46 13° S 02:51:02 13° S 02:53:59 10° SSE visible
23 Apr 9.7 02:00:11 11° SSE 02:00:11 11° SSE 02:00:32 10° SSE visible
23 Apr 9.5 03:48:04 10° SSW 03:50:07 11° SSW 03:52:09 10° S visible
24 Apr 9.4 02:56:32 13° S 02:56:38 13° S 02:59:31 10° SSE visible
25 Apr 9.7 02:06:04 11° SSE 02:06:04 11° SSE 02:06:27 10° SSE visible
26 Apr 9.5 03:02:35 11° S 03:02:35 11° S 03:04:01 10° S visible
